TimeCST,TemperatureF,Dew PointF,Humidity,Sea Level PressureIn,VisibilityMPH,Wind Direction,Wind SpeedMPH,Gust SpeedMPH,PrecipitationIn,Events,Conditions,WindDirDegrees,DateUTC
12:15 AM,30.2,28.4,93,30.08,3.0,South,6.9,-,N/A,,Clear,180,2012-11-06 06:15:00
12:35 AM,28.4,26.6,93,30.07,2.5,South,4.6,-,N/A,,Clear,180,2012-11-06 06:35:00
12:55 AM,30.2,28.4,93,30.06,3.0,South,8.1,-,N/A,,Scattered Clouds,180,2012-11-06 06:55:00
1:15 AM,32.0,32.0,100,30.05,4.0,South,6.9,-,N/A,,Overcast,170,2012-11-06 07:15:00
1:35 AM,32.0,32.0,100,30.04,4.0,South,6.9,-,N/A,,Overcast,180,2012-11-06 07:35:00
1:55 AM,32.0,30.2,93,30.04,4.0,South,6.9,-,N/A,,Scattered Clouds,190,2012-11-06 07:55:00
2:15 AM,32.0,30.2,93,30.02,4.0,South,6.9,-,N/A,,Mostly Cloudy,190,2012-11-06 08:15:00
2:35 AM,32.0,30.2,93,30.02,4.0,South,5.8,-,N/A,,Scattered Clouds,190,2012-11-06 08:35:00
2:55 AM,32.0,30.2,93,30.02,4.0,South,6.9,-,N/A,,Scattered Clouds,190,2012-11-06 08:55:00
3:15 AM,32.0,30.2,93,30.00,4.0,South,8.1,-,N/A,,Scattered Clouds,190,2012-11-06 09:15:00
3:35 AM,32.0,30.2,93,30.00,4.0,South,5.8,-,N/A,,Mostly Cloudy,190,2012-11-06 09:35:00
3:55 AM,32.0,30.2,93,30.00,5.0,SSW,5.8,-,N/A,,Overcast,200,2012-11-06 09:55:00
4:15 AM,32.0,30.2,93,29.99,5.0,South,6.9,-,N/A,,Overcast,170,2012-11-06 10:15:00
4:35 AM,32.0,30.2,93,29.98,4.0,South,8.1,-,N/A,,Overcast,170,2012-11-06 10:35:00
4:55 AM,32.0,28.4,87,29.97,5.0,South,8.1,-,N/A,,Mostly Cloudy,190,2012-11-06 10:55:00
5:35 AM,32.0,28.4,87,29.95,5.0,South,10.4,-,N/A,,Scattered Clouds,190,2012-11-06 11:35:00
5:55 AM,32.0,28.4,87,29.95,7.0,South,9.2,-,N/A,,Overcast,190,2012-11-06 11:55:00
6:15 AM,32.0,28.4,87,29.95,7.0,SSW,6.9,-,N/A,,Overcast,200,2012-11-06 12:15:00
6:35 AM,32.0,28.4,87,29.95,7.0,SSW,5.8,-,N/A,,Overcast,200,2012-11-06 12:35:00
6:55 AM,32.0,28.4,87,29.95,7.0,South,8.1,-,N/A,,Overcast,190,2012-11-06 12:55:00
7:15 AM,32.0,28.4,87,29.94,7.0,South,8.1,-,N/A,,Overcast,190,2012-11-06 13:15:00
7:35 AM,32.0,28.4,87,29.94,7.0,South,6.9,-,N/A,,Overcast,190,2012-11-06 13:35:00
7:55 AM,32.0,30.2,93,29.94,2.0,South,10.4,-,N/A,Snow,Light Snow,190,2012-11-06 13:55:00
8:15 AM,32.0,30.2,93,29.93,2.0,South,9.2,-,N/A,Snow,Light Snow,180,2012-11-06 14:15:00
8:35 AM,32.0,32.0,100,29.92,3.0,South,9.2,-,N/A,Snow,Light Snow,180,2012-11-06 14:35:00
8:55 AM,32.0,32.0,100,29.91,2.0,South,10.4,-,N/A,Snow,Light Snow,170,2012-11-06 14:55:00
9:15 AM,32.0,32.0,100,29.91,2.0,South,10.4,-,N/A,Snow,Light Snow,180,2012-11-06 15:15:00
9:35 AM,32.0,32.0,100,29.91,1.2,South,10.4,-,N/A,Snow,Light Snow,190,2012-11-06 15:35:00
9:55 AM,32.0,32.0,100,29.91,1.0,South,8.1,-,N/A,Snow,Light Snow,190,2012-11-06 15:55:00
10:15 AM,32.0,32.0,100,29.91,1.2,South,11.5,-,N/A,Snow,Light Snow,180,2012-11-06 16:15:00
10:35 AM,33.8,32.0,93,29.90,1.2,South,9.2,-,N/A,,Overcast,180,2012-11-06 16:35:00
11:15 AM,33.8,32.0,93,29.88,2.0,South,10.4,-,N/A,Rain,Light Rain,180,2012-11-06 17:15:00
11:35 AM,33.8,32.0,93,29.87,3.0,South,11.5,-,N/A,Rain,Light Rain,180,2012-11-06 17:35:00
11:55 AM,33.8,32.0,93,29.86,3.0,South,11.5,-,N/A,Rain,Light Rain,190,2012-11-06 17:55:00
12:15 PM,33.8,32.0,93,29.85,2.5,South,10.4,-,N/A,,Overcast,180,2012-11-06 18:15:00
12:35 PM,33.8,32.0,93,29.84,2.0,South,10.4,-,N/A,,Light Drizzle,180,2012-11-06 18:35:00
12:55 PM,33.8,32.0,93,29.84,2.0,South,11.5,-,N/A,Rain,Light Rain,180,2012-11-06 18:55:00
1:15 PM,33.8,32.0,93,29.82,2.5,South,9.2,-,N/A,Rain,Light Rain,170,2012-11-06 19:15:00
1:35 PM,33.8,33.8,100,29.82,3.0,South,10.4,-,N/A,Rain,Light Rain,180,2012-11-06 19:35:00
1:55 PM,33.8,33.8,100,29.82,4.0,South,11.5,-,N/A,Rain,Light Rain,180,2012-11-06 19:55:00
2:15 PM,33.8,32.0,93,29.81,3.0,South,8.1,-,N/A,Rain,Light Rain,190,2012-11-06 20:15:00
2:35 PM,33.8,32.0,93,29.81,4.0,South,9.2,-,N/A,Rain,Light Rain,170,2012-11-06 20:35:00
2:55 PM,33.8,33.8,100,29.81,4.0,South,8.1,-,N/A,Rain,Light Rain,190,2012-11-06 20:55:00
3:15 PM,33.8,33.8,100,29.82,4.0,South,8.1,-,N/A,,Light Drizzle,190,2012-11-06 21:15:00
4:15 PM,33.8,32.0,93,29.82,5.0,South,5.8,-,N/A,,Light Drizzle,190,2012-11-06 22:15:00
4:35 PM,33.8,32.0,93,29.83,2.0,SSW,4.6,-,N/A,,Light Drizzle,200,2012-11-06 22:35:00
4:55 PM,33.8,33.8,100,29.84,2.0,SSW,4.6,-,N/A,,Overcast,200,2012-11-06 22:55:00
5:15 PM,33.8,33.8,100,29.84,1.5,SSW,3.5,-,N/A,,Overcast,200,2012-11-06 23:15:00
5:35 PM,33.8,33.8,100,29.84,1.0,South,4.6,-,N/A,,Drizzle,190,2012-11-06 23:35:00
5:55 PM,33.8,33.8,100,29.84,1.5,Calm,Calm,-,N/A,,Light Drizzle,0,2012-11-06 23:55:00
6:15 PM,33.8,33.8,100,29.85,1.5,SSW,3.5,-,N/A,,Light Drizzle,210,2012-11-07 00:15:00
6:35 PM,33.8,33.8,100,29.85,2.0,South,4.6,-,N/A,,Overcast,190,2012-11-07 00:35:00
6:55 PM,33.8,33.8,100,29.85,2.0,South,3.5,-,N/A,,Overcast,180,2012-11-07 00:55:00
7:15 PM,33.8,33.8,100,29.85,3.0,Calm,Calm,-,N/A,,Mostly Cloudy,0,2012-11-07 01:15:00
7:35 PM,33.8,33.8,100,29.85,3.0,Calm,Calm,-,N/A,,Overcast,0,2012-11-07 01:35:00
7:55 PM,33.8,33.8,100,29.85,3.0,West,3.5,-,N/A,,Overcast,260,2012-11-07 01:55:00
8:15 PM,33.8,33.8,100,29.86,3.0,West,3.5,-,N/A,,Overcast,260,2012-11-07 02:15:00
8:35 PM,33.8,33.8,100,29.86,4.0,Calm,Calm,-,N/A,,Overcast,0,2012-11-07 02:35:00
8:55 PM,33.8,33.8,100,29.86,4.0,Calm,Calm,-,N/A,,Overcast,0,2012-11-07 02:55:00
9:15 PM,33.8,33.8,100,29.87,4.0,Calm,Calm,-,N/A,,Overcast,0,2012-11-07 03:15:00
9:35 PM,33.8,33.8,100,29.87,4.0,Calm,Calm,-,N/A,,Overcast,0,2012-11-07 03:35:00
9:55 PM,35.6,33.8,93,29.87,2.5,Calm,Calm,-,N/A,,Overcast,0,2012-11-07 03:55:00
10:15 PM,33.8,33.8,100,29.87,2.5,Calm,Calm,-,N/A,,Overcast,0,2012-11-07 04:15:00
10:35 PM,35.6,33.8,93,29.87,2.0,Calm,Calm,-,N/A,,Overcast,0,2012-11-07 04:35:00
10:55 PM,33.8,33.8,100,29.87,2.0,Calm,Calm,-,N/A,,Overcast,0,2012-11-07 04:55:00
11:15 PM,33.8,33.8,100,29.88,1.8,Calm,Calm,-,N/A,,Overcast,0,2012-11-07 05:15:00
11:35 PM,33.8,33.8,100,29.88,1.5,Calm,Calm,-,N/A,,Overcast,0,2012-11-07 05:35:00
11:55 PM,33.8,33.8,100,29.89,1.8,Calm,Calm,-,N/A,,Overcast,0,2012-11-07 05:55:00